Terminal Aerodrome Forecast
Issued by NWS Aberdeen, SD

Home | Current Version | Previous Version | Text Only | Print | Product List | Glossary On
Versions: 1 2 3 4 5 6 7 8 9 10 11 12 13 14 15 16 17 18 19 20 21 22 23 24 25 26 27 28 29 30 31 32 33 34 35 36 37 38 39 40 41 42 43 44 45 46 47 48 49 50
000
FTUS43 KABR 231100
TAFABR
TAF
KABR 231139Z 2312/2412 05014KT P6SM VCSH OVC004
      TEMPO 2312/2313 -SHRA SCT005 BKN025 OVC080
     FM231300 07010KT 4SM SHRA BR VCTS BKN007 OVC040CB
     FM231800 09014KT P6SM VCSH BKN015 OVC050
     FM232300 12013KT P6SM VCTS OVC050CB
     FM240400 15007KT P6SM SCT040 BKN120 OVC250=

USA.gov is the U.S. government's official web portal to all federal, state and local government web resources and services.